Powrót do katalogu

METEOR 2-11

AktywnyPogodaPO
NORAD 15099·PAYLOAD·🇷🇺 Russia

Wystrzelony Jul 5, 1984 z Plesetsk Cosmodrome

Loading…

Następne Przeloty (najbliższe 24 godziny)

TLE

ŚwieżeSource: Space-Track

Epoka: Sep 14, 2026, 04:13 UTC

1 15099U 84072A   26257.17580135  .00000067  00000-0  45911-4 0  9994
2 15099  82.5336 328.2022 0012814 194.2566 165.8235 13.85307939132667

Śledź METEOR 2-11 w czasie rzeczywistym z AllMySat

Download on the App Store